| time (UTC) | temp C | wind direction | speed KPH | gust KPH | rain 1hr cm | rain 24hr cm | rain mn cm | humidity % | barometer mb |
| 20260901150120 | 20 | 113 | 0.0 | 0.0 | 0.00 | 2.59 | 2.59 | 99 | 1014.2 |
| 20260901145619 | 20 | 76 | 0.0 | 1.6 | 0.00 | 2.59 | 2.59 | 99 | 1014.2 |
| 20260901145118 | 20 | 230 | 0.0 | 3.2 | 0.00 | 2.59 | 2.59 | 99 | 1014.1 |
| 20260901144614 | 20 | 281 | 0.0 | 3.2 | 0.00 | 2.59 | 2.59 | 99 | 1014.2 |
| 20260901144109 | 20 | 215 | 3.2 | 3.2 | 0.13 | 2.59 | 2.59 | 99 | 1014.0 |
| 20260901143604 | 20 | 193 | 0.0 | 1.6 | 0.18 | 2.59 | 2.59 | 99 | 1014.3 |
| 20260901143101 | 20 | 265 | 1.6 | 3.2 | 0.05 | 2.57 | 2.57 | 99 | 1014.1 |
| 20260901142556 | 20 | 236 | 0.0 | 1.6 | 0.00 | 2.57 | 2.57 | 99 | 1014.0 |
| 20260901142055 | 20 | 237 | 1.6 | 3.2 | 0.00 | 2.57 | 2.57 | 99 | 1014.1 |
| 20260901141550 | 20 | 232 | 0.0 | 3.2 | 0.00 | 2.57 | 2.57 | 99 | 1014.1 |
| 20260901141045 | 20 | 352 | 0.0 | 3.2 | 0.05 | 2.57 | 2.57 | 99 | 1014.0 |
| 20260901140543 | 20 | 256 | 0.0 | 1.6 | 0.18 | 2.57 | 2.57 | 99 | 1014.2 |
| 20260901140038 | 20 | 249 | 0.0 | 3.2 | 1.93 | 2.54 | 2.54 | 99 | 1014.2 |
| 20260901135537 | 20 | 235 | 3.2 | 6.4 | 2.34 | 2.49 | 2.49 | 99 | 1014.4 |
| 20260901135033 | 20 | 274 | 1.6 | 6.4 | 0.89 | 2.21 | 2.21 | 99 | 1014.4 |
| 20260901134529 | 20 | 269 | 3.2 | 6.4 | 0.36 | 2.08 | 2.08 | 99 | 1014.2 |
| 20260901134028 | 20 | 263 | 3.2 | 4.8 | 0.13 | 2.06 | 2.06 | 99 | 1014.1 |
| 20260901133527 | 20 | 250 | 4.8 | 6.4 | 0.05 | 2.03 | 2.03 | 99 | 1014.1 |
| 20260901133026 | 20 | 219 | 3.2 | 4.8 | 0.05 | 2.03 | 2.03 | 99 | 1014.4 |
| 20260901132521 | 20 | 224 | 0.0 | 1.6 | 0.13 | 2.03 | 2.03 | 99 | 1014.7 |
| 20260901132020 | 20 | 82 | 0.0 | 1.6 | 0.18 | 2.03 | 2.03 | 99 | 1014.5 |
| 20260901131514 | 20 | 50 | 0.0 | 0.0 | 0.00 | 1.98 | 1.98 | 99 | 1014.9 |
| 20260901131005 | 20 | 141 | 0.0 | 0.0 | 1.02 | 1.98 | 1.98 | 99 | 1014.6 |
| 20260901130505 | 20 | 124 | 0.0 | 1.6 | 1.50 | 1.98 | 1.98 | 99 | 1014.5 |
| 20260901130003 | 20 | 227 | 1.6 | 3.2 | 0.61 | 1.80 | 1.80 | 99 | 1014.7 |
| 20260901125457 | 19 | 282 | 3.2 | 9.7 | 0.05 | 1.73 | 1.73 | 99 | 1014.5 |
| 20260901124957 | 19 | 245 | 3.2 | 6.4 | 0.97 | 1.70 | 1.70 | 99 | 1015.1 |
| 20260901124452 | 19 | 245 | 3.2 | 6.4 | 0.97 | 1.70 | 1.70 | 99 | 1015.1 |
| 20260901123947 | 19 | 248 | 3.2 | 4.8 | 0.30 | 1.55 | 1.55 | 99 | 1014.9 |
| 20260901123442 | 18 | 254 | 4.8 | 4.8 | 0.61 | 1.55 | 1.55 | 99 | 1014.6 |
| 20260901122939 | 18 | 254 | 4.8 | 8.0 | 0.23 | 1.47 | 1.47 | 99 | 1015.0 |
| 20260901122434 | 18 | 118 | 3.2 | 4.8 | 1.50 | 1.45 | 1.45 | 99 | 1015.2 |
| 20260901121934 | 18 | 276 | 1.6 | 3.2 | 2.46 | 1.45 | 1.45 | 99 | 1015.7 |
| 20260901121429 | 18 | 131 | 3.2 | 3.2 | 2.21 | 1.19 | 1.19 | 99 | 1015.5 |
| 20260901120924 | 18 | 334 | 1.6 | 3.2 | 2.16 | 0.99 | 0.99 | 99 | 1015.6 |
| 20260901120423 | 18 | 100 | 3.2 | 4.8 | 1.80 | 0.89 | 0.89 | 99 | 1015.1 |
| 20260901115919 | 18 | 155 | 0.0 | 3.2 | 1.27 | 0.64 | 0.64 | 99 | 1015.0 |
| 20260901115419 | 18 | 80 | 1.6 | 3.2 | 1.45 | 0.56 | 0.56 | 99 | 1014.9 |
| 20260901114917 | 18 | 248 | 4.8 | 6.4 | 0.30 | 0.38 | 0.38 | 99 | 1015.1 |
| 20260901114412 | 18 | 298 | 4.8 | 6.4 | 0.23 | 0.33 | 0.33 | 99 | 1014.6 |
| 20260901113910 | 18 | 72 | 0.0 | 3.2 | 0.30 | 0.30 | 0.30 | 99 | 1014.9 |
| 20260901113409 | 18 | 47 | 0.0 | 3.2 | 0.00 | 0.25 | 0.25 | 99 | 1015.0 |
| 20260901112905 | 18 | 33 | 3.2 | 3.2 | 0.18 | 0.25 | 0.25 | 99 | 1015.1 |
| 20260901112359 | 18 | 178 | 0.0 | 1.6 | 0.43 | 0.25 | 0.25 | 99 | 1014.6 |
| 20260901111854 | 18 | 50 | 0.0 | 0.0 | 0.18 | 0.23 | 0.23 | 99 | 1014.5 |
| 20260901111352 | 18 | 10 | 3.2 | 3.2 | 0.00 | 0.18 | 0.18 | 99 | 1014.7 |
| 20260901110851 | 18 | 30 | 0.0 | 1.6 | 0.00 | 0.18 | 0.18 | 99 | 1014.3 |
| 20260901110347 | 18 | 32 | 1.6 | 1.6 | 0.00 | 0.18 | 0.18 | 99 | 1014.2 |
| 20260901105843 | 18 | 40 | 1.6 | 3.2 | 0.00 | 0.18 | 0.18 | 99 | 1014.4 |
| 20260901105338 | 18 | 24 | 1.6 | 3.2 | 0.00 | 0.18 | 0.18 | 99 | 1014.3 |
| 20260901104835 | 18 | 89 | 0.0 | 3.2 | 0.00 | 0.18 | 0.18 | 99 | 1014.2 |
| 20260901104329 | 18 | 63 | 1.6 | 3.2 | 0.05 | 0.18 | 0.18 | 99 | 1014.4 |
| 20260901103825 | 18 | 70 | 3.2 | 3.2 | 0.48 | 0.18 | 0.18 | 99 | 1014.3 |
| 20260901103319 | 18 | 58 | 1.6 | 3.2 | 0.48 | 0.18 | 0.18 | 99 | 1014.3 |
| 20260901102814 | 18 | 106 | 1.6 | 3.2 | 0.13 | 0.10 | 0.10 | 99 | 1014.3 |
| 20260901102313 | 18 | 44 | 0.0 | 3.2 | 0.05 | 0.10 | 0.10 | 99 | 1014.4 |
| 20260901101810 | 18 | 63 | 0.0 | 3.2 | 0.00 | 0.10 | 0.10 | 99 | 1014.2 |
| 20260901101309 | 18 | 105 | 0.0 | 1.6 | 0.00 | 0.10 | 0.10 | 99 | 1014.0 |
| 20260901100808 | 18 | 50 | 0.0 | 0.0 | 0.00 | 0.10 | 0.10 | 99 | 1014.1 |
| 20260901100303 | 18 | 130 | 1.6 | 3.2 | 0.00 | 0.10 | 0.10 | 99 | 1014.1 |
| 20260901095802 | 18 | 18 | 1.6 | 3.2 | 0.00 | 0.10 | 0.10 | 99 | 1014.3 |
| 20260901095300 | 18 | 89 | 1.6 | 3.2 | 0.00 | 0.10 | 0.10 | 99 | 1014.3 |
| 20260901094754 | 18 | 46 | 1.6 | 1.6 | 0.00 | 0.10 | 0.10 | 99 | 1014.5 |
| 20260901094249 | 18 | 259 | 3.2 | 3.2 | 0.00 | 0.10 | 0.10 | 99 | 1014.3 |
| 20260901093744 | 18 | 50 | 0.0 | 3.2 | 0.00 | 0.10 | 0.10 | 99 | 1014.4 |
| 20260901093243 | 18 | 27 | 1.6 | 3.2 | 0.00 | 0.10 | 0.10 | 99 | 1014.5 |
| 20260901092739 | 18 | 89 | 0.0 | 1.6 | 0.00 | 0.10 | 0.10 | 99 | 1014.3 |
| 20260901092235 | 18 | 316 | 1.6 | 3.2 | 0.00 | 0.10 | 0.10 | 99 | 1014.4 |
| 20260901091730 | 18 | 269 | 0.0 | 1.6 | 0.00 | 0.10 | 0.10 | 99 | 1014.4 |
| 20260901091226 | 18 | 229 | 1.6 | 3.2 | 0.00 | 0.10 | 0.10 | 99 | 1014.5 |
| 20260901090720 | 18 | 254 | 3.2 | 3.2 | 0.00 | 0.10 | 0.10 | 99 | 1014.9 |
| 20260901090210 | 18 | 312 | 1.6 | 3.2 | 0.00 | 0.10 | 0.10 | 99 | 1014.4 |
| 20260901085706 | 18 | 315 | 0.0 | 0.0 | 0.00 | 0.10 | 0.10 | 99 | 1014.6 |
| 20260901085201 | 18 | 50 | 0.0 | 1.6 | 0.00 | 0.10 | 0.10 | 99 | 1015.0 |
| 20260901084658 | 18 | 306 | 1.6 | 3.2 | 0.00 | 0.10 | 0.10 | 99 | 1015.2 |
| 20260901084153 | 18 | 37 | 0.0 | 0.0 | 0.00 | 0.10 | 0.10 | 99 | 1015.2 |
| 20260901083652 | 18 | 55 | 0.0 | 1.6 | 0.00 | 0.10 | 0.10 | 99 | 1015.1 |
| 20260901083152 | 18 | 322 | 0.0 | 0.0 | 0.00 | 0.10 | 0.10 | 99 | 1015.3 |
| 20260901082645 | 18 | 66 | 0.0 | 0.0 | 0.05 | 0.10 | 0.10 | 99 | 1015.2 |
| 20260901082141 | 18 | 38 | 1.6 | 3.2 | 0.05 | 0.10 | 0.10 | 99 | 1015.3 |
| 20260901081636 | 18 | 269 | 0.0 | 1.6 | 0.13 | 0.08 | 0.08 | 99 | 1015.3 |
| 20260901081131 | 18 | 322 | 0.0 | 1.6 | 0.13 | 0.08 | 0.08 | 99 | 1015.4 |
| 20260901080631 | 18 | 274 | 1.6 | 3.2 | 0.13 | 0.05 | 0.05 | 99 | 1015.4 |
| 20260901080129 | 18 | 32 | 1.6 | 1.6 | 0.05 | 0.05 | 0.05 | 99 | 1015.4 |
| 20260901075625 | 18 | 102 | 1.6 | 3.2 | 0.05 | 0.05 | 0.05 | 99 | 1015.5 |
| 20260901075125 | 18 | 57 | 1.6 | 3.2 | 0.13 | 0.05 | 0.05 | 99 | 1015.5 |
| 20260901074624 | 18 | 267 | 3.2 | 4.8 | 0.18 | 0.03 | 0.03 | 99 | 1015.5 |
| 20260901074119 | 18 | 310 | 1.6 | 4.8 | 0.05 | 0.00 | 0.00 | 99 | 1015.5 |
| 20260901073617 | 18 | 324 | 1.6 | 1.6 | 0.00 | 0.00 | 0.00 | 99 | 1015.3 |
| 20260901073117 | 18 | 19 | 0.0 | 0.0 | 0.00 | 0.00 | 0.00 | 99 | 1015.2 |
| 20260901072612 | 18 | 105 | 1.6 | 1.6 | 0.00 | 0.00 | 0.00 | 99 | 1015.4 |
| 20260901072108 | 18 | 89 | 0.0 | 0.0 | 0.00 | 0.00 | 0.00 | 99 | 1015.4 |
| 20260901071607 | 18 | 180 | 0.0 | 0.0 | 0.00 | 0.00 | 0.00 | 99 | 1015.4 |
| 20260901071106 | 18 | 52 | 0.0 | 1.6 | 0.00 | 0.00 | 0.00 | 99 | 1015.6 |
| 20260901070601 | 18 | 92 | 1.6 | 3.2 | 0.00 | 0.00 | 0.00 | 99 | 1015.5 |
| 20260901070056 | 18 | 95 | 1.6 | 3.2 | 0.00 | 0.00 | 0.00 | 99 | 1015.4 |
| 20260901065550 | 18 | 110 | 0.0 | 1.6 | 0.00 | 0.00 | 0.00 | 99 | 1015.5 |
| 20260901065044 | 18 | 235 | 0.0 | 1.6 | 0.00 | 0.00 | 0.00 | 99 | 1015.6 |
| 20260901064542 | 18 | 303 | 3.2 | 3.2 | 0.00 | 0.00 | 0.00 | 99 | 1015.7 |
| 20260901064038 | 18 | 44 | 0.0 | 1.6 | 0.00 | 0.00 | 0.00 | 99 | 1015.4 |
| 20260901063535 | 18 | 36 | 1.6 | 1.6 | 0.00 | 0.00 | 0.00 | 99 | 1015.6 |
| 20260901063030 | 18 | 322 | 0.0 | 0.0 | 0.00 | 0.00 | 0.00 | 99 | 1015.5 |
| 20260901062526 | 18 | 71 | 0.0 | 1.6 | 0.00 | 0.00 | 0.00 | 99 | 1015.7 |
| 20260901062022 | 18 | 129 | 0.0 | 0.0 | 0.00 | 0.00 | 0.00 | 99 | 1015.6 |
| 20260901061519 | 18 | 322 | 0.0 | 0.0 | 0.00 | 0.00 | 0.00 | 99 | 1016.0 |
| 20260901061018 | 18 | 322 | 0.0 | 0.0 | 0.00 | 0.00 | 0.00 | 99 | 1015.9 |
| 20260901060513 | 18 | 326 | 0.0 | 0.0 | 0.00 | 0.00 | 0.00 | 99 | 1015.8 |
| 20260901060008 | 17 | 283 | 0.0 | 0.0 | 0.00 | 0.00 | 0.00 | 99 | 1016.0 |
| 20260901055503 | 18 | 283 | 0.0 | 0.0 | 0.00 | 0.00 | 0.00 | 99 | 1015.8 |
| 20260901055000 | 17 | 283 | 0.0 | 0.0 | 0.00 | 0.00 | 0.00 | 99 | 1016.0 |
| 20260901054457 | 17 | 283 | 0.0 | 0.0 | 0.00 | 0.00 | 0.00 | 99 | 1016.2 |
| 20260901053953 | 17 | 103 | 0.0 | 0.0 | 0.00 | 0.00 | 0.00 | 99 | 1016.1 |
| 20260901053448 | 17 | 89 | 0.0 | 1.6 | 0.00 | 0.00 | 0.00 | 99 | 1016.0 |
| 20260901052943 | 17 | 101 | 1.6 | 1.6 | 0.00 | 0.00 | 0.00 | 99 | 1016.2 |
| 20260901052439 | 17 | 89 | 0.0 | 1.6 | 0.00 | 0.00 | 0.00 | 99 | 1016.1 |
| 20260901051938 | 17 | 66 | 0.0 | 1.6 | 0.00 | 0.00 | 0.00 | 99 | 1016.3 |
| 20260901051434 | 18 | 309 | 0.0 | 0.0 | 0.00 | 0.00 | 0.00 | 99 | 1016.2 |
| 20260901050933 | 18 | 322 | 0.0 | 1.6 | 0.00 | 0.00 | 0.00 | 99 | 1016.2 |
| 20260901050429 | 18 | 89 | 0.0 | 1.6 | 0.00 | 0.00 | 0.00 | 99 | 1016.5 |
| 20260901045928 | 18 | 102 | 0.0 | 3.2 | 0.00 | 0.00 | 0.00 | 99 | 1016.2 |
| 20260901045424 | 18 | 322 | 0.0 | 0.0 | 0.00 | 0.00 | 0.00 | 99 | 1016.3 |
| 20260901044918 | 18 | 49 | 0.0 | 0.0 | 0.00 | 0.00 | 0.00 | 99 | 1016.2 |
| 20260901044415 | 18 | 55 | 0.0 | 0.0 | 0.00 | 0.00 | 0.00 | 99 | 1016.2 |
| 20260901043910 | 18 | 95 | 0.0 | 0.0 | 0.00 | 0.00 | 0.00 | 99 | 1016.1 |
| 20260901043406 | 18 | 46 | 0.0 | 1.6 | 0.00 | 0.00 | 0.00 | 99 | 1016.3 |
| 20260901042900 | 18 | 89 | 0.0 | 1.6 | 0.00 | 0.00 | 0.00 | 99 | 1016.3 |
| 20260901042355 | 18 | 37 | 0.0 | 0.0 | 0.00 | 0.00 | 0.00 | 99 | 1016.1 |
| 20260901041850 | 18 | 40 | 0.0 | 1.6 | 0.00 | 0.00 | 0.00 | 99 | 1016.3 |
| 20260901041345 | 18 | 63 | 1.6 | 1.6 | 0.00 | 0.00 | 0.00 | 99 | 1016.5 |
| 20260901040840 | 18 | 76 | 1.6 | 3.2 | 0.00 | 0.00 | 0.00 | 99 | 1016.2 |
| 20260901040339 | 18 | 113 | 0.0 | 0.0 | 0.00 | 0.00 | 0.00 | 99 | 1016.4 |
| 20260901035838 | 18 | 250 | 1.6 | 1.6 | 0.00 | 1.12 | 1.12 | 99 | 1016.2 |
| 20260901035337 | 18 | 55 | 0.0 | 0.0 | 0.00 | 1.12 | 1.12 | 99 | 1016.1 |
| 20260901034836 | 18 | 89 | 0.0 | 1.6 | 0.00 | 1.12 | 1.12 | 99 | 1016.2 |
| 20260901034331 | 18 | 76 | 0.0 | 1.6 | 0.00 | 1.12 | 1.12 | 99 | 1016.2 |
| 20260901033831 | 18 | 66 | 0.0 | 1.6 | 0.00 | 1.12 | 1.12 | 99 | 1016.3 |
| 20260901033330 | 18 | 50 | 0.0 | 1.6 | 0.00 | 1.12 | 1.12 | 99 | 1016.3 |
| 20260901032829 | 18 | 315 | 0.0 | 1.6 | 0.00 | 1.12 | 1.12 | 99 | 1016.4 |
| 20260901032328 | 18 | 48 | 0.0 | 1.6 | 0.00 | 1.12 | 1.12 | 99 | 1016.2 |
| 20260901031823 | 18 | 55 | 0.0 | 1.6 | 0.00 | 1.12 | 1.12 | 99 | 1016.1 |
| 20260901031319 | 18 | 55 | 0.0 | 1.6 | 0.00 | 1.12 | 1.12 | 99 | 1016.5 |
| 20260901030819 | 18 | 66 | 0.0 | 3.2 | 0.00 | 1.12 | 1.12 | 99 | 1016.3 |
| 20260901030314 | 18 | 24 | 0.0 | 0.0 | 0.00 | 1.12 | 1.12 | 99 | 1016.5 |
| 20260901025813 | 18 | 50 | 0.0 | 0.0 | 0.00 | 1.12 | 1.12 | 99 | 1016.5 |
| 20260901025308 | 18 | 47 | 1.6 | 3.2 | 0.00 | 1.12 | 1.12 | 99 | 1016.3 |
| 20260901024803 | 18 | 32 | 0.0 | 3.2 | 0.05 | 1.12 | 1.12 | 99 | 1016.5 |
| 20260901024302 | 18 | 113 | 0.0 | 0.0 | 0.05 | 1.12 | 1.12 | 99 | 1016.4 |
| 20260901023800 | 18 | 85 | 1.6 | 1.6 | 0.00 | 1.09 | 1.09 | 99 | 1016.4 |
| 20260901023256 | 18 | 89 | 0.0 | 0.0 | 0.00 | 1.09 | 1.09 | 99 | 1016.7 |
| 20260901022751 | 18 | 10 | 1.6 | 3.2 | 0.00 | 1.09 | 1.09 | 99 | 1016.6 |
| 20260901022247 | 18 | 14 | 0.0 | 3.2 | 0.00 | 1.09 | 1.09 | 99 | 1016.7 |
| 20260901021741 | 18 | 345 | 0.0 | 1.6 | 0.00 | 1.09 | 1.09 | 99 | 1016.3 |
| 20260901021237 | 18 | 22 | 0.0 | 3.2 | 0.00 | 1.09 | 1.09 | 99 | 1016.5 |
| 20260901020732 | 18 | 83 | 3.2 | 3.2 | 0.00 | 1.09 | 1.09 | 99 | 1016.6 |
| 20260901020229 | 18 | 24 | 1.6 | 3.2 | 0.00 | 1.09 | 1.09 | 99 | 1016.6 |
| 20260901015728 | 18 | 29 | 1.6 | 3.2 | 0.00 | 1.09 | 1.09 | 99 | 1016.5 |
| 20260901015225 | 18 | 49 | 0.0 | 1.6 | 0.00 | 1.09 | 1.09 | 99 | 1016.7 |
| 20260901014724 | 18 | 60 | 0.0 | 1.6 | 0.00 | 1.09 | 1.09 | 99 | 1016.7 |
| 20260901014220 | 18 | 12 | 3.2 | 3.2 | 0.00 | 1.09 | 1.09 | 99 | 1016.6 |
| 20260901013715 | 18 | 23 | 1.6 | 1.6 | 0.00 | 1.09 | 1.09 | 99 | 1016.7 |
| 20260901013211 | 18 | 326 | 0.0 | 0.0 | 0.00 | 1.09 | 1.09 | 99 | 1016.7 |
| 20260901012706 | 18 | 24 | 0.0 | 1.6 | 0.00 | 1.09 | 1.09 | 99 | 1016.8 |
| 20260901012206 | 18 | 311 | 1.6 | 1.6 | 0.00 | 1.09 | 1.09 | 99 | 1017.0 |
| 20260901011702 | 19 | 316 | 1.6 | 1.6 | 0.00 | 1.09 | 1.09 | 99 | 1017.0 |
| 20260901011201 | 19 | 296 | 0.0 | 0.0 | 0.00 | 1.09 | 1.09 | 99 | 1016.7 |
| 20260901010656 | 19 | 89 | 0.0 | 0.0 | 0.00 | 1.09 | 1.09 | 99 | 1016.5 |
| 20260901010151 | 19 | 89 | 0.0 | 0.0 | 0.00 | 1.09 | 1.09 | 99 | 1016.7 |
| 20260901005649 | 19 | 89 | 0.0 | 0.0 | 0.05 | 1.09 | 1.09 | 99 | 1016.6 |
| 20260901005145 | 19 | 177 | 0.0 | 1.6 | 0.13 | 1.09 | 1.09 | 99 | 1016.7 |
| 20260901004644 | 19 | 269 | 0.0 | 3.2 | 0.13 | 1.09 | 1.09 | 99 | 1016.7 |
| 20260901004139 | 19 | 318 | 1.6 | 3.2 | 0.05 | 1.07 | 1.07 | 99 | 1016.6 |
| 20260901003634 | 19 | 298 | 3.2 | 3.2 | 0.05 | 1.07 | 1.07 | 99 | 1016.6 |
| 20260901003133 | 19 | 322 | 0.0 | 0.0 | 0.05 | 1.07 | 1.07 | 99 | 1016.5 |
| 20260901002633 | 18 | 22 | 0.0 | 0.0 | 0.05 | 1.07 | 1.07 | 99 | 1016.3 |
| 20260901002128 | 19 | 23 | 3.2 | 3.2 | 0.05 | 1.04 | 1.04 | 99 | 1016.3 |
| 20260901001623 | 19 | 302 | 0.0 | 0.0 | 0.05 | 1.04 | 1.04 | 99 | 1016.2 |
| 20260901001118 | 19 | 319 | 0.0 | 0.0 | 0.05 | 1.04 | 1.04 | 99 | 1016.3 |
| 20260901000613 | 19 | 119 | 0.0 | 0.0 | 0.05 | 1.04 | 1.04 | 99 | 1016.5 |
| 20260901000104 | 19 | 93 | 1.6 | 3.2 | 0.05 | 1.04 | 1.04 | 99 | 1016.5 |
| 20260831235557 | 19 | 315 | 0.0 | 3.2 | 0.13 | 1.04 | 1.04 | 99 | 1016.3 |
| 20260831235053 | 19 | 315 | 0.0 | 0.0 | 0.05 | 1.02 | 1.02 | 99 | 1016.3 |
| 20260831234552 | 19 | 269 | 1.6 | 3.2 | 0.00 | 1.02 | 1.02 | 99 | 1016.6 |
| 20260831234048 | 19 | 352 | 1.6 | 3.2 | 0.00 | 1.02 | 1.02 | 99 | 1016.4 |
| 20260831233542 | 19 | 320 | 3.2 | 3.2 | 0.00 | 1.02 | 1.02 | 99 | 1016.5 |
| 20260831233038 | 19 | 268 | 3.2 | 3.2 | 0.00 | 1.02 | 1.02 | 99 | 1016.7 |
| 20260831232533 | 19 | 286 | 0.0 | 3.2 | 0.00 | 1.02 | 1.02 | 99 | 1016.5 |
| 20260831232029 | 19 | 299 | 0.0 | 0.0 | 0.00 | 1.02 | 1.02 | 99 | 1016.5 |
| 20260831231526 | 19 | 269 | 0.0 | 3.2 | 0.00 | 1.02 | 1.02 | 99 | 1016.6 |
| 20260831231021 | 19 | 124 | 0.0 | 1.6 | 0.00 | 1.02 | 1.02 | 99 | 1016.8 |
| 20260831230517 | 19 | 315 | 0.0 | 1.6 | 0.05 | 1.02 | 1.02 | 99 | 1016.8 |
| 20260831230016 | 19 | 233 | 0.0 | 0.0 | 0.05 | 1.02 | 1.02 | 99 | 1016.7 |
| 20260831225512 | 19 | 234 | 0.0 | 1.6 | 0.00 | 0.99 | 0.99 | 99 | 1016.8 |
| 20260831225012 | 19 | 55 | 0.0 | 1.6 | 0.00 | 0.99 | 0.99 | 99 | 1016.9 |
| 20260831224507 | 19 | 49 | 0.0 | 0.0 | 0.00 | 0.99 | 0.99 | 99 | 1016.9 |
| 20260831224001 | 19 | 20 | 1.6 | 1.6 | 0.00 | 0.99 | 0.99 | 99 | 1017.0 |
| 20260831223457 | 19 | 304 | 0.0 | 0.0 | 0.00 | 0.99 | 0.99 | 99 | 1017.0 |
| 20260831222953 | 19 | 145 | 0.0 | 1.6 | 0.05 | 0.99 | 0.99 | 99 | 1017.2 |
| 20260831222449 | 19 | 110 | 0.0 | 3.2 | 0.13 | 0.99 | 0.99 | 99 | 1017.2 |
| 20260831221943 | 19 | 32 | 0.0 | 1.6 | 0.13 | 0.99 | 0.99 | 99 | 1017.5 |
| 20260831221439 | 19 | 55 | 1.6 | 3.2 | 0.13 | 0.99 | 0.99 | 99 | 1017.4 |
| 20260831220934 | 19 | 76 | 0.0 | 0.0 | 0.18 | 0.97 | 0.97 | 99 | 1017.3 |
| 20260831220430 | 19 | 222 | 0.0 | 1.6 | 0.18 | 0.97 | 0.97 | 99 | 1017.4 |
| 20260831215925 | 19 | 322 | 0.0 | 1.6 | 0.13 | 0.94 | 0.94 | 99 | 1017.5 |
| 20260831215421 | 19 | 89 | 0.0 | 0.0 | 0.18 | 0.94 | 0.94 | 99 | 1017.6 |
| 20260831214917 | 19 | 119 | 0.0 | 3.2 | 0.05 | 0.91 | 0.91 | 99 | 1017.5 |
| 20260831214414 | 19 | 0 | 0.0 | 3.2 | 0.00 | 0.89 | 0.89 | 99 | 1017.7 |
| 20260831213915 | 19 | 131 | 0.0 | 1.6 | 0.05 | 0.89 | 0.89 | 99 | 1017.5 |
| 20260831213411 | 19 | 66 | 0.0 | 1.6 | 0.05 | 0.89 | 0.89 | 99 | 1017.4 |
| 20260831212911 | 19 | 103 | 0.0 | 0.0 | 0.00 | 0.89 | 0.89 | 99 | 1017.5 |
| 20260831212408 | 19 | 22 | 0.0 | 1.6 | 0.00 | 0.89 | 0.89 | 99 | 1017.5 |
| 20260831211907 | 19 | 48 | 0.0 | 1.6 | 0.05 | 0.89 | 0.89 | 99 | 1017.5 |
| 20260831211402 | 19 | 66 | 0.0 | 1.6 | 0.05 | 0.89 | 0.89 | 99 | 1017.7 |
| 20260831210901 | 19 | 60 | 0.0 | 3.2 | 0.00 | 0.89 | 0.89 | 99 | 1017.5 |
| 20260831210357 | 19 | 38 | 0.0 | 1.6 | 0.00 | 0.89 | 0.89 | 99 | 1017.5 |
| 20260831205852 | 19 | 89 | 0.0 | 0.0 | 0.00 | 0.89 | 0.89 | 99 | 1017.2 |
| 20260831205348 | 19 | 117 | 0.0 | 3.2 | 0.00 | 0.89 | 0.89 | 99 | 1017.6 |
| 20260831204843 | 19 | 44 | 0.0 | 3.2 | 0.00 | 0.89 | 0.89 | 99 | 1017.5 |
| 20260831204342 | 19 | 40 | 0.0 | 1.6 | 0.00 | 0.89 | 0.89 | 99 | 1017.6 |
| 20260831203841 | 19 | 23 | 0.0 | 3.2 | 0.00 | 0.89 | 0.89 | 99 | 1017.5 |
| 20260831203336 | 19 | 94 | 1.6 | 3.2 | 0.00 | 0.89 | 0.89 | 99 | 1017.7 |
| 20260831202834 | 19 | 19 | 0.0 | 0.0 | 0.00 | 0.89 | 0.89 | 99 | 1017.7 |
| 20260831202324 | 19 | 54 | 1.6 | 3.2 | 0.00 | 0.89 | 0.89 | 99 | 1017.6 |
| 20260831201818 | 19 | 34 | 0.0 | 3.2 | 0.00 | 0.89 | 0.89 | 99 | 1017.6 |
| 20260831201316 | 18 | 105 | 3.2 | 3.2 | 0.00 | 0.89 | 0.89 | 99 | 1017.6 |
| 20260831200813 | 19 | 3 | 1.6 | 3.2 | 0.00 | 0.89 | 0.89 | 99 | 1017.8 |
| 20260831200307 | 19 | 37 | 0.0 | 0.0 | 0.05 | 0.89 | 0.89 | 99 | 1017.8 |
| 20260831195802 | 18 | 36 | 0.0 | 1.6 | 0.23 | 0.89 | 0.89 | 99 | 1018.0 |
| 20260831195258 | 18 | 19 | 1.6 | 1.6 | 0.48 | 0.86 | 0.86 | 99 | 1017.6 |
| 20260831194753 | 18 | 31 | 1.6 | 3.2 | 0.36 | 0.84 | 0.84 | 99 | 1017.8 |
| 20260831194249 | 18 | 0 | 1.6 | 3.2 | 0.23 | 0.79 | 0.79 | 99 | 1017.9 |
| 20260831193742 | 18 | 31 | 0.0 | 3.2 | 0.18 | 0.76 | 0.76 | 99 | 1017.8 |
| 20260831193238 | 18 | 100 | 1.6 | 3.2 | 0.05 | 0.74 | 0.74 | 99 | 1017.8 |
| 20260831192733 | 18 | 249 | 0.0 | 3.2 | 0.05 | 0.74 | 0.74 | 99 | 1017.8 |
| 20260831192228 | 18 | 97 | 3.2 | 3.2 | 0.05 | 0.74 | 0.74 | 99 | 1017.8 |
| 20260831191724 | 18 | 114 | 4.8 | 4.8 | 0.00 | 0.74 | 0.74 | 99 | 1018.0 |
| 20260831191220 | 18 | 0 | 0.0 | 1.6 | 0.00 | 0.74 | 0.74 | 99 | 1018.2 |
| 20260831190715 | 18 | 23 | 0.0 | 0.0 | 0.00 | 0.74 | 0.74 | 99 | 1018.3 |
| 20260831190214 | 18 | 212 | 0.0 | 1.6 | 0.00 | 0.74 | 0.74 | 99 | 1018.4 |
| 20260831185709 | 18 | 116 | 0.0 | 3.2 | 0.00 | 0.74 | 0.74 | 99 | 1018.2 |
| 20260831185205 | 18 | 359 | 3.2 | 4.8 | 0.00 | 0.74 | 0.74 | 99 | 1018.2 |
| 20260831184704 | 18 | 124 | 0.0 | 3.2 | 0.00 | 0.74 | 0.74 | 99 | 1018.4 |
| 20260831184200 | 18 | 308 | 3.2 | 4.8 | 0.05 | 0.74 | 0.74 | 99 | 1018.7 |
| 20260831183659 | 18 | 41 | 1.6 | 6.4 | 0.05 | 0.71 | 0.71 | 99 | 1018.7 |
| 20260831183159 | 18 | 113 | 0.0 | 3.2 | 0.05 | 0.71 | 0.71 | 99 | 1018.8 |
| 20260831182658 | 18 | 302 | 1.6 | 6.4 | 0.00 | 0.71 | 0.71 | 99 | 1018.6 |
| 20260831182154 | 18 | 44 | 0.0 | 3.2 | 0.00 | 0.71 | 0.71 | 99 | 1018.7 |
| 20260831181649 | 18 | 257 | 3.2 | 3.2 | 0.05 | 0.71 | 0.71 | 99 | 1018.7 |
| 20260831181149 | 18 | 45 | 0.0 | 4.8 | 0.05 | 0.71 | 0.71 | 99 | 1019.0 |
| 20260831180644 | 18 | 76 | 0.0 | 3.2 | 0.05 | 0.71 | 0.71 | 99 | 1019.0 |
| 20260831180134 | 18 | 214 | 1.6 | 6.4 | 0.05 | 0.71 | 0.71 | 99 | 1019.2 |
| 20260831175628 | 18 | 181 | 3.2 | 3.2 | 0.05 | 0.69 | 0.69 | 99 | 1019.1 |
| 20260831175125 | 18 | 217 | 0.0 | 1.6 | 0.18 | 0.69 | 0.69 | 99 | 1019.1 |
| 20260831174620 | 18 | 280 | 3.2 | 6.4 | 0.05 | 0.66 | 0.66 | 99 | 1019.0 |
| 20260831174119 | 18 | 13 | 0.0 | 3.2 | 0.05 | 0.66 | 0.66 | 99 | 1019.2 |
| 20260831173618 | 18 | 247 | 4.8 | 4.8 | 0.05 | 0.66 | 0.66 | 99 | 1019.3 |
| 20260831173115 | 18 | 101 | 0.0 | 3.2 | 0.23 | 0.66 | 0.66 | 99 | 1019.5 |
| 20260831172614 | 18 | 60 | 0.0 | 3.2 | 0.23 | 0.64 | 0.64 | 99 | 1019.2 |
| 20260831172109 | 18 | 237 | 0.0 | 3.2 | 0.23 | 0.61 | 0.61 | 99 | 1019.5 |
| 20260831171604 | 18 | 259 | 1.6 | 3.2 | 0.13 | 0.61 | 0.61 | 99 | 1019.5 |
| 20260831171102 | 18 | 89 | 0.0 | 1.6 | 0.13 | 0.58 | 0.58 | 99 | 1019.5 |
| 20260831170557 | 18 | 76 | 0.0 | 3.2 | 0.18 | 0.56 | 0.56 | 99 | 1019.5 |
| 20260831170055 | 18 | 195 | 0.0 | 4.8 | 0.30 | 0.56 | 0.56 | 99 | 1019.6 |
| 20260831165554 | 18 | 203 | 1.6 | 4.8 | 0.23 | 0.53 | 0.53 | 99 | 1019.6 |
| 20260831165051 | 18 | 214 | 1.6 | 6.4 | 0.13 | 0.51 | 0.51 | 99 | 1019.8 |
| 20260831164547 | 18 | 215 | 3.2 | 4.8 | 0.13 | 0.51 | 0.51 | 99 | 1019.6 |
| 20260831164042 | 18 | 112 | 3.2 | 3.2 | 0.13 | 0.48 | 0.48 | 99 | 1019.6 |
| 20260831163537 | 18 | 66 | 0.0 | 3.2 | 0.13 | 0.48 | 0.48 | 99 | 1019.9 |
| 20260831163033 | 18 | 38 | 0.0 | 1.6 | 0.23 | 0.46 | 0.46 | 99 | 1019.9 |
| 20260831162531 | 18 | 129 | 0.0 | 0.0 | 0.36 | 0.43 | 0.43 | 99 | 1019.7 |
| 20260831162030 | 18 | 112 | 1.6 | 3.2 | 0.66 | 0.43 | 0.43 | 99 | 1019.9 |
| 20260831161526 | 18 | 55 | 1.6 | 3.2 | 0.61 | 0.38 | 0.38 | 99 | 1019.9 |
| 20260831161022 | 18 | 66 | 0.0 | 1.6 | 1.02 | 0.30 | 0.30 | 99 | 1019.9 |
| 20260831160521 | 18 | 315 | 3.2 | 3.2 | 1.63 | 0.28 | 0.28 | 98 | 1019.8 |
| 20260831160017 | 19 | 345 | 0.0 | 1.6 | 0.66 | 0.10 | 0.10 | 96 | 1019.8 |
| 20260831155511 | 19 | 336 | 0.0 | 3.2 | 0.00 | 0.00 | 0.00 | 91 | 1019.9 |
| 20260831155007 | 20 | 325 | 1.6 | 3.2 | 0.00 | 0.00 | 0.00 | 91 | 1019.8 |
| 20260831154503 | 20 | 338 | 1.6 | 3.2 | 0.00 | 0.00 | 0.00 | 89 | 1019.6 |
| 20260831154001 | 20 | 218 | 0.0 | 3.2 | 0.00 | 0.00 | 0.00 | 88 | 1019.5 |
| 20260831153457 | 20 | 269 | 0.0 | 3.2 | 0.00 | 0.00 | 0.00 | 88 | 1019.5 |
| 20260831152954 | 20 | 309 | 0.0 | 3.2 | 0.00 | 0.00 | 0.00 | 88 | 1019.6 |
| 20260831152449 | 20 | 165 | 0.0 | 3.2 | 0.00 | 0.00 | 0.00 | 87 | 1019.7 |
| 20260831151944 | 20 | 310 | 0.0 | 3.2 | 0.00 | 0.00 | 0.00 | 89 | 1019.3 |
| 20260831151443 | 20 | 241 | 3.2 | 3.2 | 0.00 | 0.00 | 0.00 | 88 | 1019.3 |
| 20260831150938 | 20 | 142 | 0.0 | 3.2 | 0.00 | 0.00 | 0.00 | 88 | 1019.7 |
| 20260831150434 | 20 | 293 | 3.2 | 6.4 | 0.00 | 0.00 | 0.00 | 88 | 1019.8 |